Powrót do katalogu

FENGYUN 1C DEB

AktywnyPO
NORAD 29735·DEBRIS·🇨🇳 China

Wystrzelony May 10, 1999 z Taiyuan Satellite Launch Center

Loading…

Następne Przeloty (najbliższe 24 godziny)

TLE

ŚwieżeSource: Space-Track

Epoka: Sep 14, 2026, 21:35 UTC

1 29735U 99025Z   26257.89931156  .00000090  00000-0  21476-3 0  9997
2 29735  99.3803 131.9760 0700348 283.2688  69.1263 12.75904516909360

Śledź FENGYUN 1C DEB w czasie rzeczywistym z AllMySat

Download on the App Store